Regional Weather Roundup
Issued by NWS Upton, NY

Current Version | Previous Version | Text Only | Print | Product List | Glossary On
Versions: 1 2 3 4 5 6 7 8 9 10 11 12 13 14 15 16 17 18 19 20 21 22 23 24 25 26 27 28 29 30 31 32 33 34 35 36 37 38 39 40 41 42 43 44 45 46 47 48 49 50
000
ASUS41 KOKX 040108
RWROKX

REGIONAL WEATHER ROUNDUP
NATIONAL WEATHER SERVICE NEW YORK NY
900 PM EDT SUN MAY 03 2015

NOTE: "FAIR" INDICATES FEW OR NO CLOUDS BELOW 12,000 FEET WITH NO
SIGNIFICANT WEATHER AND/OR OBSTRUCTIONS TO VISIBILITY.

NYZ071-072-176-178-NJZ106-104-040200-
NEW YORK CITY METRO AREA


CITY           SKY/WX    TMP DP  RH WIND       PRES   REMARKS
CENTRAL PARK   PTCLDY    67  38  34 VRB5      30.13R
LAGUARDIA APRT MOCLDY    64  42  44 S7        30.10R
KENNEDY INTL   PTCLDY    57  48  72 SE5       30.13R
NEWARK/LIBERTY PTCLDY    67  41  38 S8        30.10R
BRNX BOT. GARD   N/A     61  41  48 S1        30.13R
TETERBORO      PTCLDY    67  38  34 SE6       30.09R
$$

NYZ177-179-078>081-040200-
LONG ISLAND NEW YORK

CITY           SKY/WX    TMP DP  RH WIND       PRES   REMARKS
FARMINGDALE    PTCLDY    53  47  79 SE7       30.14R
ISLIP          PTCLDY    54  47  77 S7        30.13R
SHIRLEY        CLEAR     53  45  74 S6        30.16R
WESTHAMPTON    CLEAR     49  41  74 S5        30.16R
MONTAUK POINT    N/A     50  45  83 S6        30.17R
$$

NYZ052-065-067-040200-
HUDSON VALLEY

CITY           SKY/WX    TMP DP  RH WIND       PRES   REMARKS
WHITE PLAINS   PTCLDY    57  43  59 S5        30.11R
NEWBURGH       PTCLDY    68  39  34 VRB6      30.10R
MONTGOMERY     MOCLDY    62  45  53 CALM      30.07R
POUGHKEEPSIE   PTCLDY    70  39  32 CALM      30.07R
ALBANY         PTCLDY    65  40  39 CALM      30.06R
$$

NJZ001-105-106-008-010-013-015-019>022-104-040200-
NEW JERSEY

CITY           SKY/WX    TMP DP  RH WIND       PRES   REMARKS
NEWARK/LIBERTY PTCLDY    67  41  38 S8        30.10R
TETERBORO      PTCLDY    67  38  34 SE6       30.09R
CALDWELL       PTCLDY    67  41  38 CALM      30.10R
MORRISTOWN     CLEAR     68  41  37 CALM      30.10R
SOMERVILLE     CLEAR     68  42  38 S6        30.08R
SUSSEX         PTCLDY    66  40  38 CALM      30.10R
ANDOVER          N/A     60  46  59 CALM      30.09R
TRENTON        CLEAR     66  39  37 S12       30.10R
MILLVILLE      CLEAR     61  47  59 S7        30.14R
ATLANTIC CITY  CLEAR     56  50  80 S8        30.14R
WRIGHTSTOWN    CLEAR     62  42  49 S6        30.09R
TOMS RIVER     CLEAR     57  48  72 S6        30.13R
BELMAR         CLEAR     61  45  55 S5        30.12R
$$

PAZ047>061-062-071-040200-
EASTERN PENNSYLVANIA

CITY           SKY/WX    TMP DP  RH WIND       PRES   REMARKS
PHILADELPHIA   CLEAR     68  41  37 S9        30.11R
ALLENTOWN      MOCLDY    63  39  41 SW5       30.08R
SCRANTON       CLEAR     65  36  34 SE3       30.09R
$$

CTZ002-004>006-009-010-012-RIZ004-006-007-MAZ004-011-015-040200-
SOUTHERN NEW ENGLAND
 IN CT

CITY           SKY/WX    TMP DP  RH WIND       PRES   REMARKS
BRADLEY INTL   MOCLDY    67  44  43 S12       30.10R
HARTFORD       PTCLDY    64  44  48 S10       30.12R
DANBURY        PTCLDY    64  40  41 VRB3      30.12R
WTRBRY/OXFORD  PTCLDY    59  41  51 S8        30.15R
BRIDGEPORT     CLEAR     57  47  69 S7        30.13R
MERIDEN        FAIR      58  44  60 S9        30.13R
NEW HAVEN      PTCLDY    52  44  74 S3        30.14R
CHESTER        FAIR      54  43  66 S6        30.15R
GROTON         PTCLDY    50  43  77 SE7       30.15R
WILLIMANTIC    MOCLDY    59  45  59 S8        30.13R

 IN RI

CITY           SKY/WX    TMP DP  RH WIND       PRES   REMARKS
PROVIDENCE     PTCLDY    51  39  63 S8        30.16R
BLOCK ISLAND   CLEAR     48  43  81 S10       30.17R
WESTERLY       PTCLDY    49  42  77 S3        30.17R

 IN MA

CITY           SKY/WX    TMP DP  RH WIND       PRES   REMARKS
BOSTON         PTCLDY    55  42  61 S10       30.12R
WORCESTER      PTCLDY    60  42  51 S9        30.12R
WESTFIELD      PTCLDY    65  47  52 S5        30.08R
PROVINCETOWN   PTCLDY    48  41  76 S12       30.16R
NANTUCKET      CLEAR     45  41  86 S6        30.19R
$$

ANZ330-335-338-340-345-350-353-355-040200-
COASTAL MARINE OBSERVATIONS


STATION/POSITION TIME  SKY/WX   TEMP    WIND        PRES    VSBY  WAVE
                                AIR SEA DIR/SP/G                  HT/PER
                 (UTC)          (F)     (DEG/KT/KT) (MB)    (MI)  (FT/S)
NY HARB ENTRANCE 0050            53 52  190/ 12/ 14 1019.4          4/ 9
4S FIRE IS       0003               49                N/A           4/13
20S FIRE ISLAND  0050            50 48  190/ 10/ 12 1020.3          4/ 8
GREAT SOUTH BAY  0015            53 58  220/  6/  8   N/A
23SW MTP         0050            49 45  200/ 10/ 12 1020.8          4/ 8
HUDSON CANYON    NOT AVBL
EXECUTION ROCKS  NOT AVBL
WESTERN LI SOUND NOT AVBL
CENTRAL LI SOUND NOT AVBL
EASTERN LI SOUND 0000            50     190/  4/  6   N/A
ROBBINS REEF     0000            64     170/ 15/ 15 1017.4
$$


>>>>>>>>>>>>>>>>>>>>>>>>>>>> KEY <<<<<<<<<<<<<<<<<<<<<<<<<<<
>                                                          <
>     SKY/WX - SKY CONDITION/PRESENT WEATHER               <
>     TMP    - TEMPERATURE IN FAHRENHEIT                   <
>     DP     - DEWPOINT IN FAHRENHEIT                      <
>     RH     - RELATIVE HUMIDITY IN PERCENT                <
>     WIND   - DIRECTION AND SPEED IN MPH                  <
>     PRES   - MEAN SEA LEVEL PRESSURE IN INCHES OF HG     <
>     WCI    - WIND CHILL INDEX                            <
>     VSB    - VISIBILITY IN MILES                         <
>     HX     - HEAT INDEX                                  <
>     TC     - TEMPERATURE IN CELSIUS                      <
>     VRB    - VARIABLE WIND DIRECTION                     <
>                                                          <
>>>>>>>>>>>>>>>>>>>>>>>>>>>> KEY <<<<<<<<<<<<<<<<<<<<<<<<<<<





USA.gov is the U.S. government's official web portal to all federal, state and local government web resources and services.